Regional Weather Roundup
Issued by NWS

Home | Current Version | Previous Version | Text Only | Print | Product List | Glossary Off
Versions: 1 2 3 4 5 6 7 8 9 10 11 12 13 14 15 16 17 18 19 20 21 22 23 24 25 26 27 28 29 30 31 32 33 34 35 36 37 38 39 40 41 42 43 44 45 46 47 48 49 50

000
ASUS43 KFSD 231410
RWRSD

WEATHER ROUNDUP FOR SOUTH DAKOTA
NATIONAL WEATHER SERVICE SIOUX FALLS SD
800 AM CST FRI FEB 23 2018

NOTE: "FAIR" INDICATES FEW OR NO CLOUDS BELOW 12,000 FEET WITH NO
SIGNIFICANT WEATHER AND/OR OBSTRUCTIONS TO VISIBILITY.


SDZ001>005-009-010-012>017-231500-
NORTHWEST AND NORTH CENTRAL SOUTH DAKOTA

CITY           SKY/WX    TMP DP  RH WIND       PRES   REMARKS
BUFFALO          N/A     -5 -10  79 W7        30.08S WCI -19
FAITH            N/A     -4  -8  83 NW16      30.18R WCI -25
MOBRIDGE       PTCLDY     6   0  76 NW12      30.19R WCI  -9
$$

SDZ012>016-024>037-041>051-057-063-072>074-231500-
SOUTHWEST AND SOUTH CENTRAL SOUTH DAKOTA

CITY           SKY/WX    TMP DP  RH WIND       PRES   REMARKS
RAPID CTY ARPT CLEAR     -2  -5  87 CALM      30.17R
PIERRE         CLEAR      3   0  87 W10       30.23R WCI -12
CUSTER         PTCLDY    -3  -9  75 N6        30.00R WCI -15
ELLSWORTH AFB  CLEAR      0  -6  77 W5        30.15R WCI -10
PHILIP         CLEAR     -3  -7  82 W7        30.24R WCI -16
PINE RIDGE     CLEAR    -11 -15  82 CALM      30.16S
SPEARFISH        N/A      3  -6  66 W3        30.11S
WINNER         FAIR       5   0  79 W9        30.23S WCI  -9
$$

SDZ004>011-016>023-039-040-231500-
NORTHEAST SOUTH DAKOTA

CITY           SKY/WX    TMP DP  RH WIND       PRES   REMARKS
ABERDEEN       CLEAR      6   6 100 NW7       30.20R FOG     WCI  -6
WATERTOWN      CLOUDY    18  17  96 NW12      30.13S WCI   5
BROOKINGS      CLOUDY    19  18  93 NW8       30.16R WCI   9
SISSETON         N/A     19  16  88 NW13      30.15R WCI   6
$$

SDZ017-020-022-023-036>040-048>070-231500-
SOUTHEAST SOUTH DAKOTA

CITY           SKY/WX    TMP DP  RH WIND       PRES   REMARKS
SIOUX FALLS    CLOUDY    15  13  91 NW16G25   30.19R FOG     WCI  -1
HURON          CLOUDY     9   7  92 NW10      30.21R WCI  -5
CHAMBERLAIN    CLOUDY     8   6  91 W8        30.24R WCI  -4
MITCHELL       CLEAR     11   9  92 W10       30.23R WCI  -3
YANKTON        CLOUDY    10   8  92 W8        30.24S WCI  -2
$$

ABBREVIATIONS USED IN REMARKS
   TC - TEMPERATURE IN CELSIUS
  WCI - WIND CHILL INDEX
   HX - HEAT INDEX
  VSB - VISIBILITY





USA.gov is the U.S. government's official web portal to all federal, state and local government web resources and services.